Preview of NWS' New Version of Forecast
This preview is not operational and should not be used for support decisions.

Terminal Aerodrome Forecast (TAF)

Issued by National Weather Service (NWS)

                            
000
FTUS45 KBOI 181120
TAFMYL
TAF
KMYL 181120Z 1812/1912 00000KT P6SM SCT250
     FM181700 19008KT P6SM SKC
     FM190200 VRB03KT P6SM SKC=